COSMOS 970 DEB, 10568

Orbit data source: Space-Track

COSMOS 970 DEB, 10568 is space debris in LEO originally from a launch on Wed, 21 Dec 1977 UTC launched from the Tyuratam Missile And Space Complex (TTMTR). Debris objects in space refer to the collection of defunct objects orbiting the Earth. Examples of debris include non-operational satellites, rocket bodies, and fragments generated from explosions, collisions, or faulty payload assembly.

Loading next visibility...
Identifier
10568, 1977-121K
Orbit
LEO
Country
Flag of CISCIS
Related business
Manufacturer
Unknown
Mission
Spacecraft
Bus & Motor
Unknown
Mass
Unknown
Launch date (UTC)
1977-12-21 (48 years ago)
Launch vehicle
Unknown
Launch site
Tyuratam Missile And Space Complex (TTMTR)
Object type
Payload
Rocket body
Debris
Shape & HBR
Unknown shape, 0.2 m
Radar Cross Section
Medium (>0.1 m² and <1 m²)

Expand to show TLE details & history
Last TLE update: 22 hours ago

TLE from 22 hours ago
0 COSMOS 970 DEB
1 10568U 77121K   26170.98260985  .00000201  00000-0  30217-3 0  9990
2 10568  65.7699  13.7338 0190576 108.4201 253.7679 13.65572241407324
Epoch: 2026-06-19T23:34Z
TLE epoch observation values (Epoch: 2026-06-19T23:34:57.491Z)
Latitude
-0.00002°
Longitude
111.79047°
Altitude
1,059.331 km
Speed
7.302 km/s
True Right ascension
00h 54m 56s
True Declination
0° 00' 00"
Sunlit
Object was in daylight at epoch
Visualization orbit readout
Latitude
Unknown
Longitude
Unknown
Altitude
Unknown
Speed
Unknown
Apparent Right ascension
Unknown
Apparent Declination
Unknown
Sunlit
N/A
Visualization observer readout
Local Sidereal Time
08:32:59
Azimuth
Unknown
Elevation
Unknown
Doppler factor
Unknown
Orbital elements
Apogee altitude
1,154.918 km
Perigee altitude
873.164 km
Semi-major axis
7,392.178 km
Eccentricity
0.01906
Inclination
65.7699°
RAAN
13.7338°
Arg. of periapsis
108.4201°
True anomaly
251.68545°
Mean anomaly
253.7679°
Eccentric anomaly
252.72523°
Mean motion
3.41495 °/min
Orbital period
105.42 mins
BSTAR
0.00030217
Loading maneuver chart data...
Computing Atmospheric mass density...
Loading historical data...
Loading historical data...
Loading historical data...
Loading historical data...
Loading historical data...
Loading historical data...
Loading historical data...

Documentation

Showing up to 5 results
|